CZ-3C DEB, 39338

Orbit data source: Space-Track

CZ-3C DEB, 39338 is space debris in HEO originally from a launch on Sun, 31 Oct 2010 UTC launched from the Xichang Space Center, China (XSC). Debris objects in space refer to the collection of defunct objects orbiting the Earth. Examples of debris include non-operational satellites, rocket bodies, and fragments generated from explosions, collisions, or faulty payload assembly.

Loading next visibility...
Identifier
39338, 2010-057C
Orbit
HEO
Country
Flag of CNCN / PRC
Related business
Manufacturer
CALT
Mission
Spacecraft
Bus & Motor
Unknown
Mass
Unknown
Launch date (UTC)
2010-10-31 (16 years ago)
Launch vehicle
Unknown
Launch site
Xichang Space Center, China (XSC)
Object type
Payload
Rocket body
Debris
Shape & HBR
Unknown shape, 0.4 m
Radar Cross Section
Medium (>0.1 m² and <1 m²)

Expand to show TLE details & history
Last TLE update: 3 days ago

TLE from 3 days ago
0 CZ-3C DEB
1 39338U 10057C   26261.35109161 -.00000128  00000-0  66234-3 0  9998
2 39338  20.2041 333.9068 7189228  40.8696 354.9239  2.25955540106503
Epoch: 2026-09-18T08:25Z
TLE epoch observation values (Epoch: 2026-09-18T08:25:34.315Z)
Latitude
-0.00013°
Longitude
-149.75363°
Altitude
1,276.077 km
Speed
9.375 km/s
True Right ascension
22h 15m 39s
True Declination
0° 00' 00"
Sunlit
Object was in full shadow at epoch
Visualization orbit readout
Latitude
Unknown
Longitude
Unknown
Altitude
Unknown
Speed
Unknown
Apparent Right ascension
Unknown
Apparent Declination
Unknown
Sunlit
N/A
Visualization observer readout
Local Sidereal Time
08:06:10
Azimuth
Unknown
Elevation
Unknown
Doppler factor
Unknown
Orbital elements
Apogee altitude
35,796.776 km
Perigee altitude
518.279 km
Semi-major axis
24,535.664 km
Eccentricity
0.71892
Inclination
20.2041°
RAAN
333.9068°
Arg. of periapsis
40.8696°
True anomaly
318.58784°
Mean anomaly
354.9239°
Eccentric anomaly
342.61923°
Mean motion
0.56474 °/min
Orbital period
637.46 mins
BSTAR
0.00066234
Loading maneuver chart data...
Computing Atmospheric mass density...
Loading historical data...
Loading historical data...
Loading historical data...
Loading historical data...
Loading historical data...
Loading historical data...
Loading historical data...

Documentation

Showing up to 5 results
|